Terminal Aerodrome Forecast
Issued by NWS

Home | Current Version | Previous Version | Text Only | Print | Product List | Glossary On
Versions: 1 2 3 4 5 6 7 8 9 10 11 12 13 14 15 16 17 18 19 20 21
458
FTUS46 KSEW 102338
TAFCLM
TAF
KCLM 102338Z 1100/1124 25005KT P6SM -SHRA SCT025 BKN040
     FM110800 27010KT P6SM -SHRA SCT020 BKN030
     FM111400 24005KT P6SM VCSH SCT030 BKN050=

USA.gov is the U.S. government's official web portal to all federal, state and local government web resources and services.